Flag for United Arab Emirates Weather past 2 weeks in Umm al-Quwain, Umm al-Quwain, United Arab Emirates

Now
99 °F

Sunny.


Feels Like: 108 °F
Forecast: 87 / 96 °F
Wind: 14 mph from Northwest

Location: Sharjah International Airport

Current Time: Oct 2, 2014 at 3:11:32 PM

Latest Report: Oct 2, 2014 at 2:00 PM


Visibility: 10 mi

Pressure: 29.80 "Hg

Humidity: 42%

Dew point: 72 °F

Location of Umm al-QuwainLocation

Historic Weather in Umm al-Quwain — Graph

°F

Umm al-Quwain temperature yesterday

Maximum temperature yesterday: 100 °F (at 11:00 AM)
Minimum temperature yesterday: 84 °F (at 5:00 AM)
Average temperature yesterday: 92 °F

Past Weeks' High & Low Weather Summary

 TemperatureHumidityPressure
High106 °F (Sep 22, 1:00 PM)89% (Sep 18, 5:00 AM)29.92 "Hg (Sep 18, 5:00 AM)
Low79 °F (Sep 29, 6:00 AM)23% (Oct 2, 12:00 PM)29.59 "Hg (Sep 17, 2:00 PM)
Average91 °F58%29.75 "Hg
* Reported Sep 17 2:00 PM — Oct 2 2:00 PM, Umm al-Quwain, Weather by CustomWeather, © 2014

Note: Actual official high and low records may vary slightly from our data, if they occured in-between our weather recording intervals... More about our weather records

Advertising

Umm al-Quwain weather history for previous 24 hours

 ConditionsComfort  
Time TempWeatherWind HumidityBarometerVisibility
2:00 PM
Oct 2
99 °FSunny.14 mph42%29.80 "Hg10 mi
1:00 PM100 °FPassing clouds.13 mph31%29.83 "HgN/A
12:00 PM102 °FPassing clouds.10 mph23%29.86 "HgN/A
11:00 AM100 °FPassing clouds.9 mph33%29.89 "HgN/A
10:00 AM97 °FPassing clouds.3 mph42%29.89 "HgN/A
9:00 AM91 °FPassing clouds.5 mph56%29.92 "HgN/A
8:00 AM86 °FPassing clouds.5 mph66%29.89 "HgN/A
7:00 AM82 °FPassing clouds.5 mph70%29.89 "HgN/A
6:00 AM82 °FClear.5 mph74%29.86 "Hg10 mi
5:00 AM84 °FPassing clouds.6 mph70%29.83 "HgN/A
4:00 AM84 °FClear.3 mph70%29.83 "Hg10 mi
3:00 AM84 °FPassing clouds.5 mph70%29.83 "HgN/A
2:00 AM86 °FClear.3 mph66%29.83 "Hg10 mi
1:00 AM88 °FPassing clouds.5 mph62%29.83 "HgN/A
12:00 AM88 °FClear.6 mph66%29.83 "Hg10 mi
11:00 PM
Oct 1
91 °FClear.5 mph63%29.86 "Hg10 mi
10:00 PM91 °FPassing clouds.5 mph63%29.86 "HgN/A
9:00 PM93 °FClear.8 mph56%29.86 "Hg10 mi
8:00 PM93 °FPassing clouds.8 mph56%29.83 "HgN/A
7:00 PM93 °FClear.10 mph53%29.83 "Hg10 mi
6:00 PM95 °FSunny.12 mph50%29.80 "Hg10 mi
5:00 PM95 °FSunny.12 mph53%29.80 "Hg10 mi
4:00 PM97 °FSunny.13 mph50%29.80 "Hg10 mi
3:00 PM99 °FPassing clouds.14 mph39%29.80 "HgN/A
Weather by CustomWeather, © 2014

See weather overviewHow to use our weather pages